Regional Weather Roundup
Issued by NWS

Home | Current Version | Previous Version | Graphics & Text | Print | Product List | Glossary On
Versions: 1 2 3 4 5 6 7 8 9 10 11 12 13 14 15 16 17 18 19 20 21 22 23 24 25 26 27 28 29 30 31 32 33 34 35 36 37 38 39 40 41 42 43 44 45 46 47 48 49 50
000
ASUS43 KDMX 181907
RWRIA

WEATHER ROUNDUP FOR IOWA
NATIONAL WEATHER SERVICE DES MOINES IA
200 PM CDT SAT APR 18 2015

NOTE: "FAIR" INDICATES FEW OR NO CLOUDS BELOW 12,000 FEET WITH NO
SIGNIFICANT WEATHER AND/OR OBSTRUCTIONS TO VISIBILITY.

* - THESE STATIONS ARE NOT NWS STATIONS...THUS NOT UNDER NWS
QUALITY CONTROL.  THEY ALSO DO NOT REPORT WEATHER SUCH
AS PRECIPITATION OR FOG.

IAZ001>003-012>014-020>022-031>034-043>046-182000-
   NORTHWEST IOWA

CITY           SKY/WX    TMP DP  RH WIND       PRES   REMARKS
CARROLL *      LGT RAIN  63  59  88 E15       29.90S
CHEROKEE *     LGT RAIN  57  57 100 NW3       29.95S
DENISON *      RAIN      57  57 100 NE3       29.90F
LE MARS *      DRIZZLE   59  59 100 CALM      29.94F
ORANGE CITY *  RAIN     N/A N/A N/A S5        29.94F
SHELDON *      LGT RAIN  59  59 100 SE16      29.94R
SIOUX CITY     LGT RAIN  61  57  87 E18       29.87F
SPENCER        LGT RAIN  60  55  83 SE13      29.94F
STORM LAKE *   LGT RAIN  59  55  88 E6        29.92F
$$

IAZ055>058-069>071-079>083-090>094-182000-
   SOUTHWEST IOWA

CITY           SKY/WX    TMP DP  RH WIND       PRES   REMARKS
ATLANTIC *     RAIN      59  59 100 W3        29.92S
AUDUBON *      HVY RAIN  57  54  88 W5        29.93S
CLARINDA *     MOSUNNY   61  61 100 NW7       29.92F
COUNCIL BLFS * LGT RAIN  59  59 100 SE9       29.92R
CRESTON *      CLOUDY    63  63 100 W13       29.91R
HARLAN  *      LGT RAIN  59  59 100 E5        29.95R
LAMONI         LGT RAIN  64  60  87 SW8       29.91R
RED OAK *      HVY RAIN  59  59 100 SW6       29.93S
SHENANDOAH *   LGT RAIN  61  61 100 CALM      29.93F
$$

IAZ047>049-059>061-072>074-084-182000-
   CENTRAL IOWA

CITY           SKY/WX    TMP DP  RH WIND       PRES   REMARKS
AMES           CLOUDY    71  56  58 SE10      29.89F
ANKENY *       PTSUNNY   73  57  56 SE22G32   29.86F
CHARITON *     PTSUNNY   64  57  77 SE12      29.91S
DES MOINES     CLOUDY    75  56  51 SE25G36   29.87F
GRINNELL*      CLOUDY    73  54  49 SE17G23   29.92F
KNOXVILLE *    MOSUNNY   73  59  60 S18G26    29.88F
MARSHALLTOWN   PTSUNNY   75  54  47 SE17      29.90F
PELLA *        CLOUDY    75  61  60 SE16G24   29.91F
PERRY *        RAIN      63  61  94 W3        29.89F
$$

IAZ004>006-015-016-023>025-035-036-182000-
   NORTH CENTRAL IOWA

CITY           SKY/WX    TMP DP  RH WIND       PRES   REMARKS
ALGONA *       DRIZZLE   55  54  94 E5        29.95F
CLARION *      PTSUNNY   59  52  77 N10       29.92F
ESTHERVILLE    LGT RAIN  57  53  86 SE12      29.95F
FORT DODGE *   CLOUDY    61  54  77 NE10      29.91F
MASON CITY     CLOUDY    73  43  33 E10       29.95F
FOREST CITY *  LGT RAIN  64  43  45 CALM      29.95F
IOWA FALLS *     N/A     75  52  43 SE18      29.91F
$$

IAZ007>011-017>019-026>030-037>042-050>054-066-182000-
   NORTHEAST IOWA

CITY           SKY/WX    TMP DP  RH WIND       PRES   REMARKS
CEDAR RAPIDS   CLOUDY    76  53  44 SE15G25   29.94F
CHARLES CITY * MOSUNNY   77  45  31 SE20      29.95F
CLINTON *      CLOUDY    75  46  35 E22       30.00F
DECORAH *      SUNNY     73  41  31 E15G22    29.98F
DUBUQUE        PTSUNNY   73  42  32 SE18G25   30.00F
MONTICELLO *   SUNNY     77  48  36 SE18      29.96F
OELWEIN *      MOSUNNY   77  46  33 E22G29    29.96F
WATERLOO       PTSUNNY   77  49  37 SE20G28   29.92F
$$

IAZ064-065-067-068-078-182000-
   EAST CENTRAL IOWA

CITY           SKY/WX    TMP DP  RH WIND       PRES   REMARKS
DAVENPORT      CLOUDY    78  52  40 S13       29.97F
IOWA CITY      CLOUDY    77  56  48 SE16      29.95F
MT. PLEASANT * CLOUDY    79  52  38 SE20G26   29.93F
MUSCATINE *    MOSUNNY   77  54  44 SE14      29.94F
QUAD CITIES    CLOUDY    78  53  41 S10G18    29.95F
$$

IAZ062-063-075>077-085>089-095>099-182000-
   SOUTHEAST IOWA

CITY           SKY/WX    TMP DP  RH WIND       PRES   REMARKS
BURLINGTON     PTSUNNY   78  55  44 SE13      29.94F
FAIRFIELD *    MOSUNNY   77  55  47 SE18G25   29.92F
FORT MADISON * SUNNY     79  54  41 SE15G21   29.94F
KEOKUK *       SUNNY     79  55  44 SE16G25   29.92F
OSKALOOSA *      N/A     77  52  41 SE20      29.91F
CENTERVILLE *  SUNNY     64  63  94 SE6       29.93F
OTTUMWA        CLOUDY    77  54  44 SE17G26   29.91F
WASHINGTON *   PTSUNNY   79  55  44 SE21      29.92F
$$

ABBREVIATIONS USED IN REMARKS
   TC - TEMPERATURES IN CELSIUS
  WCI - WIND CHILL INDEX
   HX - HEAT INDEX
  VSB - VISIBILITY
$$



USA.gov is the U.S. government's official web portal to all federal, state and local government web resources and services.